This is the latest recevied weather packets stored in our database for station/object K4XP. If no packets are shown the sender has not sent any weather packets the latest 10 day(s).
| Time | Temp. | Humidity | Pressure | Rain* | Wind** | Luminosity | Snow |
|---|---|---|---|---|---|---|---|
| 1778163025 | 17.78° C | 96% | 1009.5 hPa | 1.78 mm | - | - | - |
| 1778162722 | 17.78° C | 96% | 1010 hPa | 2.03 mm | - | - | - |
| 1778162418 | 17.78° C | 96% | 1010.1 hPa | 2.03 mm | - | - | - |
| 1778162118 | 17.78° C | 96% | 1010.2 hPa | 2.03 mm | - | - | - |
| 1778161814 | 17.78° C | 96% | 1010.2 hPa | 1.78 mm | - | - | - |
| 1778161531 | 17.78° C | 96% | 1010.2 hPa | 1.78 mm | - | - | - |
| 1778161226 | 17.78° C | 96% | 1010.6 hPa | 1.52 mm | - | - | - |
| 1778160922 | 17.78° C | 96% | 1010.6 hPa | 1.27 mm | - | - | - |
| 1778160619 | 17.78° C | 96% | 1010.5 hPa | 1.02 mm | - | - | - |
| 1778160315 | 17.78° C | 96% | 1010.6 hPa | 0.76 mm | - | - | - |
| 1778160015 | 17.78° C | 96% | 1010.3 hPa | 0.51 mm | - | - | - |
| 1778159730 | 17.78° C | 96% | 1010.1 hPa | 0.51 mm | - | - | - |
| 1778159426 | 17.78° C | 96% | 1009.9 hPa | 0.25 mm | - | - | - |
| 1778159122 | 17.78° C | 96% | 1009.8 hPa | 0.25 mm | - | - | - |
| 1778158818 | 17.78° C | 96% | 1010 hPa | 0.25 mm | - | - | - |
| 1778158514 | 17.78° C | 96% | 1009.7 hPa | 0.51 mm | - | - | - |
| 1778158229 | 17.78° C | 96% | 1009.6 hPa | 0.76 mm | - | - | - |
| 1778157926 | 17.78° C | 96% | 1009.7 hPa | 1.02 mm | - | - | - |
| 1778157625 | 17.78° C | 96% | 1009.9 hPa | 1.52 mm | - | - | - |
| 1778157322 | 17.22° C | 96% | 1009.9 hPa | 2.03 mm | - | - | - |
| 1778157018 | 17.22° C | 96% | 1010 hPa | 2.03 mm | - | - | - |
| 1778156713 | 17.22° C | 96% | 1010.3 hPa | 2.54 mm | - | - | - |
| 1778156429 | 17.78° C | 96% | 1010 hPa | 3.05 mm | - | - | - |
| 1778156125 | 17.22° C | 96% | 1010.3 hPa | 4.06 mm | - | - | - |
| 1778155821 | 17.22° C | 96% | 1010.3 hPa | 4.57 mm | - | - | - |
* Rain latest hour (hover to see other rain measurements)
** Current wind speed in m/s (hover to see current wind gust speed)